TimeCDT,TemperatureF,Dew PointF,Humidity,Sea Level PressureIn,VisibilityMPH,Wind Direction,Wind SpeedMPH,Gust SpeedMPH,PrecipitationIn,Events,Conditions,WindDirDegrees,DateUTC
12:56 AM,77.0,73.9,90,30.00,8.0,Calm,Calm,-,N/A,,Clear,0,2013-08-05 05:56:00
1:56 AM,75.0,73.0,94,29.99,4.0,Calm,Calm,-,N/A,,Clear,0,2013-08-05 06:56:00
2:56 AM,73.9,71.1,91,29.99,7.0,Calm,Calm,-,N/A,,Clear,0,2013-08-05 07:56:00
3:05 AM,73.4,71.6,94,30.00,3.0,Calm,Calm,-,N/A,,Scattered Clouds,0,2013-08-05 08:05:00
3:13 AM,73.4,71.6,94,30.00,4.0,Calm,Calm,-,N/A,,Mostly Cloudy,0,2013-08-05 08:13:00
3:24 AM,75.2,71.6,89,30.00,8.0,Calm,Calm,-,N/A,,Scattered Clouds,0,2013-08-05 08:24:00
3:56 AM,73.0,71.1,93,29.99,4.0,Calm,Calm,-,N/A,,Clear,0,2013-08-05 08:56:00
4:56 AM,75.0,72.0,90,29.99,9.0,Calm,Calm,-,N/A,,Clear,0,2013-08-05 09:56:00
5:56 AM,73.0,71.1,93,30.01,8.0,Calm,Calm,-,N/A,,Clear,0,2013-08-05 10:56:00
6:56 AM,73.9,72.0,93,30.02,5.0,Calm,Calm,-,N/A,,Clear,0,2013-08-05 11:56:00
8:56 AM,81.0,73.9,79,30.03,10.0,NNE,3.5,-,N/A,,Clear,30,2013-08-05 13:56:00
9:56 AM,86.0,72.0,63,30.04,10.0,North,3.5,-,N/A,,Clear,10,2013-08-05 14:56:00
10:56 AM,88.0,72.0,59,30.04,10.0,Variable,4.6,-,N/A,,Clear,0,2013-08-05 15:56:00
11:56 AM,89.1,70.0,53,30.02,10.0,North,8.1,-,N/A,,Scattered Clouds,350,2013-08-05 16:56:00
12:56 PM,89.1,69.1,52,30.01,10.0,NNW,4.6,-,N/A,,Clear,340,2013-08-05 17:56:00
1:56 PM,89.1,70.0,53,30.00,10.0,Variable,6.9,-,N/A,,Clear,0,2013-08-05 18:56:00
2:56 PM,89.1,70.0,53,29.98,10.0,NNE,10.4,-,N/A,,Partly Cloudy,20,2013-08-05 19:56:00
3:56 PM,90.0,71.1,54,29.97,10.0,NW,3.5,-,N/A,,Partly Cloudy,320,2013-08-05 20:56:00
4:56 PM,88.0,70.0,55,29.97,10.0,NNE,6.9,-,N/A,,Clear,30,2013-08-05 21:56:00
5:56 PM,87.1,71.1,59,29.97,10.0,North,6.9,-,N/A,,Clear,360,2013-08-05 22:56:00
6:56 PM,82.9,72.0,69,29.99,10.0,NE,3.5,-,N/A,,Scattered Clouds,50,2013-08-05 23:56:00
7:56 PM,81.0,73.9,79,29.99,10.0,Calm,Calm,-,N/A,,Clear,0,2013-08-06 00:56:00
8:56 PM,79.0,73.9,84,29.98,10.0,Calm,Calm,-,N/A,,Clear,0,2013-08-06 01:56:00
9:56 PM,78.1,73.0,84,29.99,10.0,Calm,Calm,-,N/A,,Clear,0,2013-08-06 02:56:00
10:56 PM,77.0,73.0,88,29.98,8.0,Calm,Calm,-,N/A,,Clear,0,2013-08-06 03:56:00
11:56 PM,75.0,73.0,94,29.97,7.0,Calm,Calm,-,N/A,,Clear,0,2013-08-06 04:56:00